• In Belarus
  • List of Countries
  • For 7 days
  • Water Temperature
  • Weather Map
  • Weather Widgets
  • user-avatar
    Login

    Hourly Weather Montbeliard

    Today, 31 May, Sunday

    Time Temperature Precipitation Wind Pressure Humidity
    00:00 +9°C° 0 mm 2 mps 732 mmHg 84%
    01:00 +8°C° 0 mm 2 mps 732 mmHg 85%
    02:00 +8°C° 0 mm 2 mps 732 mmHg 86%
    03:00 +7°C° 0 mm 2 mps 732 mmHg 87%
    04:00 +8°C° 0 mm 2 mps 732 mmHg 82%
    05:00 +10°C° 0 mm 2 mps 732 mmHg 78%
    06:00 +12°C° 0 mm 2 mps 732 mmHg 74%
    07:00 +13°C° 0 mm 3 mps 732 mmHg 69%
    08:00 +16°C° 0 mm 3 mps 732 mmHg 63%
    09:00 +17°C° 0 mm 4 mps 732 mmHg 58%
    10:00 +18°C° 0 mm 4 mps 732 mmHg 56%
    11:00 +19°C° 0 mm 4 mps 732 mmHg 55%
    12:00 +20°C° 0 mm 4 mps 732 mmHg 53%
    13:00 +20°C° 0 mm 4 mps 731 mmHg 54%
    14:00 +20°C° 0 mm 4 mps 731 mmHg 54%
    15:00 +21°C° 0 mm 4 mps 731 mmHg 54%
    16:00 +20°C° 0 mm 4 mps 731 mmHg 59%
    17:00 +19°C° 0 mm 4 mps 731 mmHg 64%
    18:00 +18°C° 0 mm 3 mps 731 mmHg 68%
    19:00 +16°C° 0 mm 3 mps 731 mmHg 70%
    20:00 +13°C° 0 mm 3 mps 731 mmHg 73%
    21:00 +12°C° 0 mm 3 mps 731 mmHg 75%
    22:00 +11°C° 0 mm 3 mps 731 mmHg 78%
    23:00 +10°C° 0 mm 3 mps 731 mmHg 82%

    Tomorrow, 1 June, Monday

    Time Temperature Precipitation Wind Pressure Humidity
    00:00 +9°C° 0 mm 2 mps 732 mmHg 85%
    01:00 +9°C° 0 mm 3 mps 732 mmHg 85%
    02:00 +9°C° 0 mm 3 mps 731 mmHg 86%
    03:00 +8°C° 0 mm 3 mps 731 mmHg 86%
    04:00 +10°C° 0 mm 3 mps 731 mmHg 82%
    05:00 +11°C° 0 mm 3 mps 731 mmHg 79%
    06:00 +12°C° 0 mm 3 mps 732 mmHg 75%
    07:00 +14°C° 0 mm 3 mps 732 mmHg 71%
    08:00 +17°C° 0 mm 3 mps 732 mmHg 66%
    09:00 +19°C° 0 mm 4 mps 732 mmHg 61%
    10:00 +20°C° 0 mm 4 mps 732 mmHg 59%
    11:00 +21°C° 0 mm 4 mps 732 mmHg 57%
    12:00 +22°C° 0 mm 3 mps 732 mmHg 55%
    13:00 +24°C° 0 mm 3 mps 732 mmHg 55%
    14:00 +24°C° 0 mm 3 mps 731 mmHg 54%
    15:00 +24°C° 0 mm 3 mps 731 mmHg 53%
    16:00 +23°C° 0 mm 2 mps 731 mmHg 60%
    17:00 +21°C° 0 mm 2 mps 731 mmHg 67%
    18:00 +20°C° 0 mm 2 mps 731 mmHg 74%
    19:00 +19°C° 0 mm 2 mps 731 mmHg 77%
    20:00 +17°C° 0 mm 2 mps 732 mmHg 80%
    21:00 +15°C° 0 mm 2 mps 732 mmHg 83%
    22:00 +14°C° 0 mm 2 mps 732 mmHg 85%
    23:00 +14°C° 0 mm 2 mps 732 mmHg 87%

    Day after tomorrow, 2 June, Tuesday

    Time Temperature Precipitation Wind Pressure Humidity
    00:00 +13°C° 0 mm 2 mps 731 mmHg 89%
    01:00 +13°C° 0 mm 2 mps 731 mmHg 90%
    02:00 +13°C° 0 mm 1 mps 731 mmHg 91%
    03:00 +12°C° 0 mm 1 mps 731 mmHg 93%
    04:00 +13°C° 0 mm 1 mps 731 mmHg 89%
    05:00 +15°C° 0 mm 1 mps 731 mmHg 85%
    06:00 +16°C° 0 mm 1 mps 732 mmHg 82%
    07:00 +18°C° 0 mm 2 mps 731 mmHg 75%
    08:00 +19°C° 0 mm 2 mps 731 mmHg 69%
    09:00 +21°C° 0 mm 3 mps 731 mmHg 62%
    10:00 +22°C° 0 mm 3 mps 731 mmHg 59%
    11:00 +24°C° 0 mm 3 mps 731 mmHg 56%
    12:00 +24°C° 0 mm 3 mps 730 mmHg 54%
    13:00 +25°C° 0 mm 3 mps 730 mmHg 55%
    14:00 +25°C° 0 mm 3 mps 730 mmHg 55%
    15:00 +25°C° 0 mm 3 mps 729 mmHg 56%
    16:00 +24°C° 0 mm 2 mps 729 mmHg 63%
    17:00 +23°C° 0 mm 2 mps 729 mmHg 70%
    18:00 +21°C° 0 mm 2 mps 728 mmHg 77%
    19:00 +20°C° 0 mm 1 mps 728 mmHg 80%
    20:00 +18°C° 0 mm 1 mps 728 mmHg 83%
    21:00 +15°C° 0 mm 1 mps 728 mmHg 86%
    22:00 +15°C° 0 mm 1 mps 728 mmHg 86%
    23:00 +14°C° 0 mm 1 mps 727 mmHg 87%

    3 June, Wednesday

    Time Temperature Precipitation Wind Pressure Humidity
    00:00 +14°C° 0 mm 1 mps 727 mmHg 88%
    01:00 +13°C° 0 mm 1 mps 727 mmHg 88%
    02:00 +13°C° 0 mm 1 mps 726 mmHg 88%
    03:00 +13°C° 0 mm 1 mps 726 mmHg 88%
    04:00 +14°C° 0 mm 1 mps 726 mmHg 85%
    05:00 +15°C° 0 mm 1 mps 725 mmHg 81%
    06:00 +16°C° 0 mm 0 mps 725 mmHg 78%
    07:00 +19°C° 0 mm 1 mps 725 mmHg 72%
    08:00 +21°C° 0 mm 1 mps 725 mmHg 67%
    09:00 +23°C° 0 mm 1 mps 725 mmHg 61%
    10:00 +24°C° 0.2 mm 1 mps 724 mmHg 59%
    11:00 +25°C° 0.2 mm 1 mps 724 mmHg 58%
    12:00 +25°C° 0.2 mm 1 mps 723 mmHg 56%
    13:00 +25°C° 0.2 mm 2 mps 723 mmHg 57%
    14:00 +25°C° 0.2 mm 2 mps 723 mmHg 58%
    15:00 +25°C° 0.2 mm 2 mps 722 mmHg 59%
    16:00 +24°C° 0.8 mm 2 mps 722 mmHg 69%
    17:00 +22°C° 0.8 mm 1 mps 722 mmHg 78%
    18:00 +20°C° 0.8 mm 1 mps 722 mmHg 87%
    19:00 +19°C° 1.2 mm 1 mps 722 mmHg 90%
    20:00 +18°C° 1.2 mm 1 mps 722 mmHg 92%
    21:00 +16°C° 1.2 mm 1 mps 722 mmHg 95%
    22:00 +16°C° 0.5 mm 1 mps 722 mmHg 95%
    23:00 +16°C° 0.5 mm 1 mps 722 mmHg 94%

    4 June, Thursday

    Time Temperature Precipitation Wind Pressure Humidity
    00:00 +16°C° 0.5 mm 2 mps 721 mmHg 94%
    01:00 +16°C° 0.2 mm 2 mps 721 mmHg 94%
    02:00 +15°C° 0.2 mm 2 mps 721 mmHg 94%
    03:00 +15°C° 0.2 mm 2 mps 721 mmHg 94%
    04:00 +16°C° 0.1 mm 2 mps 721 mmHg 93%
    05:00 +16°C° 0.1 mm 2 mps 721 mmHg 93%
    06:00 +17°C° 0.1 mm 3 mps 721 mmHg 93%
    07:00 +17°C° 0.5 mm 3 mps 721 mmHg 92%
    08:00 +18°C° 0.5 mm 3 mps 721 mmHg 91%
    09:00 +18°C° 0.5 mm 4 mps 721 mmHg 90%
    10:00 +17°C° 1.1 mm 4 mps 721 mmHg 92%
    11:00 +17°C° 1.1 mm 3 mps 721 mmHg 93%
    12:00 +16°C° 1.1 mm 3 mps 721 mmHg 95%
    13:00 +16°C° 0.4 mm 3 mps 721 mmHg 93%
    14:00 +16°C° 0.4 mm 3 mps 721 mmHg 90%
    15:00 +16°C° 0.4 mm 2 mps 722 mmHg 88%
    16:00 +16°C° 0.1 mm 2 mps 722 mmHg 88%
    17:00 +16°C° 0.1 mm 2 mps 722 mmHg 87%
    18:00 +17°C° 0.1 mm 2 mps 722 mmHg 87%
    19:00 +16°C° 0.1 mm 2 mps 722 mmHg 88%
    20:00 +16°C° 0.1 mm 2 mps 723 mmHg 90%
    21:00 +15°C° 0.1 mm 1 mps 723 mmHg 91%
    22:00 +15°C° 0 mm 1 mps 723 mmHg 91%
    23:00 +15°C° 0 mm 1 mps 723 mmHg 92%

    5 June, Friday

    Time Temperature Precipitation Wind Pressure Humidity
    00:00 +14°C° 0 mm 1 mps 723 mmHg 93%
    01:00 +14°C° 0 mm 1 mps 723 mmHg 93%
    02:00 +14°C° 0 mm 2 mps 723 mmHg 94%
    03:00 +14°C° 0 mm 2 mps 723 mmHg 94%
    04:00 +14°C° 0 mm 2 mps 723 mmHg 93%
    05:00 +15°C° 0 mm 2 mps 723 mmHg 93%
    06:00 +15°C° 0 mm 2 mps 723 mmHg 92%
    07:00 +16°C° 0.1 mm 2 mps 723 mmHg 88%
    08:00 +17°C° 0.1 mm 3 mps 723 mmHg 85%
    09:00 +18°C° 0.1 mm 3 mps 723 mmHg 81%
    10:00 +19°C° 0.4 mm 3 mps 722 mmHg 79%
    11:00 +20°C° 0.4 mm 4 mps 722 mmHg 78%
    12:00 +20°C° 0.4 mm 4 mps 722 mmHg 76%
    13:00 +20°C° 0.6 mm 4 mps 721 mmHg 78%
    14:00 +20°C° 0.6 mm 4 mps 721 mmHg 81%
    15:00 +20°C° 0.6 mm 4 mps 721 mmHg 83%
    16:00 +19°C° 0.4 mm 4 mps 721 mmHg 86%
    17:00 +19°C° 0.4 mm 3 mps 721 mmHg 90%
    18:00 +18°C° 0.4 mm 2 mps 721 mmHg 93%
    19:00 +17°C° 0.3 mm 2 mps 721 mmHg 94%
    20:00 +16°C° 0.3 mm 2 mps 722 mmHg 94%
    21:00 +15°C° 0.3 mm 2 mps 722 mmHg 95%
    22:00 +14°C° 0.1 mm 2 mps 722 mmHg 96%
    23:00 +14°C° 0.1 mm 2 mps 722 mmHg 96%
    Show more